User: anonymous
Location: Unspecified
(0.0000°N, 0.0000°E)
Time: 23:28:48
(UTC+00:00)
Language:

Explorer 11/Cluster Stage 4 - Orbit

View from above orbital plane
View from above orbital plane
View from above satellite
View from above satellite

Ground track
Ground track

The orbit data is extracted from the following two-line orbital elements,

1 00107U 61013A   14110.49181503  .00006259  00000-0  85935-3 0   331
2 00107 028.7870 266.2225 0564458 074.0527 331.0623 14.04572312648458
Epoch (UTC): 20 April 2014 11:48:12
Eccentricity: 0.0564458
inclination: 28.7870°
perigee height: 468 km
apogee height: 1287 km
right ascension of ascending node: 266.2225°
argument of perigee: 74.0527°
revolutions per day: 14.04572312
mean anomaly at epoch: 331.0623°
orbit number at epoch: 64845

The dashed part of the orbit path shows where the satellite is in the earth's shadow,  

DLR